Regional Weather Roundup
Issued by NWS

Home | Current Version | Previous Version | Text Only | Print | Product List | Glossary Off
Versions: 1 2 3 4 5 6 7 8 9 10 11 12 13 14 15 16 17 18 19 20 21 22 23 24 25 26 27 28 29 30 31 32 33 34 35 36 37 38 39 40 41 42 43 44 45 46 47 48 49 50

264
ASUS43 KTOP 280508
RWRKS

WEATHER ROUNDUP FOR KANSAS
NATIONAL WEATHER SERVICE GOODLAND KS
1200 AM CDT FRI JUL 28 2017

NOTE:  "FAIR" INDICATES FEW OR NO CLOUDS BELOW 12,000 FEET WITH NO
SIGNIFICANT WEATHER AND/OR OBSTRUCTIONS TO VISIBILITY.

KSZ001>006-013>018-027>032-041>047-280600-
NORTHWEST KANSAS

CITY           SKY/WX    TMP DP  RH WIND       PRES   REMARKS
GOODLAND       CLOUDY    69  64  84 S8        30.10
HAYS           CLEAR     70  63  78 E7        30.05
HILL CITY      CLEAR     70  62  76 E6        30.07
RUSSELL        CLEAR     70  64  81 NE7       30.03
$$

KSZ061>065-074>080-084>089-280600-
SOUTHWEST KANSAS

CITY           SKY/WX    TMP DP  RH WIND       PRES   REMARKS
DODGE CITY     CLOUDY    71  66  84 NE3       30.05
ELKHART          N/A     68  57  68 E5          N/A
GARDEN CITY    PTCLDY    72  67  84 CALM      30.07
GREAT BEND     CLEAR     75  66  73 NE7       30.03
LIBERAL        CLOUDY    75  69  81 E3        30.07
PRATT          CLEAR     72  65  79 NE6       30.02F
$$

KSZ066>073-081>083-090>101-280600-
SOUTHEAST KANSAS

CITY           SKY/WX    TMP DP  RH WIND       PRES   REMARKS
CHANUTE        CLOUDY    80  75  84 N5        29.94
COFFEYVILLE    PTCLDY    77  76  96 N3        29.91
HUTCHINSON     CLOUDY    77  67  71 NE6       30.00
MEDICINE LODGE   N/A     78  68  71 NE8       29.97
NEWTON         CLOUDY    74  70  87 N6        30.01
PARSONS        CLOUDY    77  75  93 NE7       29.93
WICHITA INTL   CLOUDY    79  70  74 NE9       29.97
WICHITA JABRA  PTCLDY    76  70  82 N6        29.97
WICHITA MCCONL CLOUDY    78  69  72 NE8       29.97
WINFIELD       CLOUDY    80  72  76 NE7       29.96
$$

KSZ007>012-019>026-033>040-048>060-102>105-280600-
NORTHEAST KANSAS

CITY           SKY/WX    TMP DP  RH WIND       PRES   REMARKS
CONCORDIA      CLOUDY    70  66  87 CALM      30.03
EMPORIA        CLOUDY    75  71  87 N6        29.97
LAWRENCE       CLOUDY    76  73  91 N5        29.96
MANHATTAN      CLEAR     73  66  78 NE7       30.00
MARYSVILLE     CLEAR     66  64  94 CALM      30.01F
OLATHE IND     CLEAR     74  71  91 N5        29.97
OLATHE EXE     CLEAR     76  72  87 N3        29.96
SALINA         PTCLDY    78  66  66 NE9       30.01
TOPEKA BILLARD PTCLDY    75  70  84 CALM      29.97
TOPEKA FORBES  CLEAR     76  70  82 N7        29.98
$$




USA.gov is the U.S. government's official web portal to all federal, state and local government web resources and services.